Location: Unspecified
(35.7250°N, 0.0000°E)
Time: 06:14:35
(UTC+00:00)

Vanguard 1 Rocket - Pass Details

Date: 16 June 2019
Orbit: 651 x 4225 km, 34.3° (Epoch: 16 July)

Event Time Altitude Azimuth Distance (km) Brightness Sun altitude
Rises 14:50:05 0° 199° (SSW) 8,199 12.5 51.5°
Reaches altitude 10° 14:58:47 10° 185° (S) 6,690 12.0 49.7°
Maximum altitude 15:11:04 20° 148° (SSE) 4,856 11.1 47.2°
Drops below altitude 10° 15:19:47 10° 108° (ESE) 4,639 10.7 45.5°
Sets 15:24:03 0° 92° (E) 5,094 10.8 44.6°
